World > North America > United States > Iowa

Buckcreek, Iowa Regional Weather

Lat: 42.85N, Lon: 92.1W
Wx Zone: IAZ028Web Search

Pass this page to a friend. Tell them to point their camera at the QR Code near the bottom of this page.

Feedback


°F Click to change Buckcreek hourly weather to Imperial units.Click to change Buckcreek hourly weather to Metric units. °C
Buckcreek Weather Map
UTC Time: 5/6/2021, 16:06
Your Time:

Buckcreek, IA Regional Weather

Expires:202105061700;;688944
ASUS43 KDMX 061606
RWRIA 

WEATHER ROUNDUP FOR IOWA
NATIONAL WEATHER SERVICE DES MOINES IA
1100 AM CDT THU MAY 06 2021

NOTE: "FAIR" INDICATES FEW OR NO CLOUDS BELOW 12,000 FEET WITH NO
SIGNIFICANT WEATHER AND/OR OBSTRUCTIONS TO VISIBILITY.

* - THESE STATIONS ARE NOT NWS STATIONS...THUS NOT UNDER NWS
QUALITY CONTROL.  THEY ALSO DO NOT REPORT WEATHER SUCH 
AS PRECIPITATION OR FOG.  


IAZ007>011-017>019-026>030-037>042-050>054-066-061700-
   NORTHEAST IOWA
  
CITY           SKY/WX    TMP DP  RH WIND       PRES   REMARKS
CEDAR RAPIDS   MOSUNNY   56  35  45 N17G30    30.17S                  
CHARLES CITY *   N/A    N/A N/A N/A MISG        N/A                   
CLINTON *      CLOUDY    50  42  74 N17       30.14R                  
DECORAH *        N/A     52  41  66 NW7G13    30.16F                  
DUBUQUE        PTSUNNY   51  48  89 N16G25    30.15S                  
MONTICELLO *   MOSUNNY   54  41  62 NW18      30.16S                  
OELWEIN *      SUNNY     54  39  58 N13       30.18F                  
WATERLOO       SUNNY     57  38  48 N14G24    30.19F                  
$$
 

SKY/WX - Weather  TMP - Temperature  DP - Dew Point  RH - Relative Humidity
WIND - Wind Direction/Speed PRES - Barometric Pressure VSB - Visibility
WCI - Wind Chill Index E13G22 Wind - East Wind 13 mph/Gusts of 22 mph